CZ-6A DEB, 54892

Orbit data source: Space-Track

CZ-6A DEB, 54892 is space debris in SSO originally from a launch on Fri, 11 Nov 2022 UTC launched from the Taiyaun Space Center, China (TSC). Debris objects in space refer to the collection of defunct objects orbiting the Earth. Examples of debris include non-operational satellites, rocket bodies, and fragments generated from explosions, collisions, or faulty payload assembly.

Loading next visibility...
Identifier
54892, 2022-151QD
Orbit
SSO
Country
Flag of CNCN / PRC
Related business
Manufacturer
SAST
Mission
Spacecraft
Bus & Motor
Unknown
Mass
Unknown
Launch date (UTC)
2022-11-11 (3 years ago)
Launch vehicle
Unknown
Launch site
Taiyaun Space Center, China (TSC)
Object type
Payload
Rocket body
Debris
Shape & HBR
Unknown shape, 0.1 m
Radar Cross Section
Small (<0.1 m²)

Expand to show TLE details & history
Last TLE update: 15 hours ago

TLE from 15 hours ago
0 CZ-6A DEB
1 54892U 22151QD  25352.11836002  .00009625  00000-0  17078-2 0  9994
2 54892  98.6347  41.3888 0075678 135.4875 225.2441 14.65576900160915
Epoch: 2025-12-18T02:50Z
TLE epoch observation values (Epoch: 2025-12-18T02:50:26.305Z)
Latitude
0.00002°
Longitude
-88.19926°
Altitude
715.996 km
Speed
7.477 km/s
True Right ascension
02h 45m 33s
True Declination
0° 00' 00"
Sunlit
Object was in full shadow at epoch
Visualization orbit readout
Latitude
Unknown
Longitude
Unknown
Altitude
Unknown
Speed
Unknown
Apparent Right ascension
Unknown
Apparent Declination
Unknown
Sunlit
N/A
Visualization observer readout
Local Sidereal Time
16:18:50
Azimuth
Unknown
Elevation
Unknown
Doppler factor
Unknown
Orbital elements
Apogee altitude
725.674 km
Perigee altitude
618.961 km
Semi-major axis
7,050.455 km
Eccentricity
0.00757
Inclination
98.6347°
RAAN
41.3888°
Arg. of periapsis
135.4875°
True anomaly
224.63237°
Mean anomaly
225.2441°
Eccentric anomaly
224.93783°
Mean motion
3.66621 °/min
Orbital period
98.19 mins
BSTAR
0.0017078
Loading maneuver chart data...
Computing Atmospheric mass density...
Loading historical data...
Loading historical data...
Loading historical data...
Loading historical data...
Loading historical data...
Loading historical data...
Loading historical data...

Documentation

Showing up to 5 results
|